Enid, OK

1:05 PM CST on February 27, 2017 (GMT -0600)
Enid Woodring Municipal

Weather History for KWDG - August, 2013

Change the Weather History Date:

Saturday, August 31, 2013

  Actual Average Record
Temperature  
Mean Temperature 86 °F -  
Max Temperature 104 °F 89 °F 109 °F (2011)
Min Temperature 68 °F 67 °F 62 °F (2006)
Cooling Degree Days 21    
Growing Degree Days 36 (Base 50)    
Moisture  
Dew Point 65 °F    
Average Humidity 68    
Maximum Humidity 94    
Minimum Humidity 21    
Precipitation  
Precipitation 0.00 in - - ()
Sea Level Pressure  
Sea Level Pressure 29.84 in    
Wind  
Wind Speed 4 mph (SSE)    
Max Wind Speed 14 mph    
Max Gust Speed 17 mph    
Visibility 10 miles    
Events      
Averages and records for this station are not official NWS values.
T = Trace of Precipitation, MM = Missing Value Source: NWS Daily Summary

Daily Weather History Graph

Daily Weather History Graph

Search for Another Location

Airport or City:

Trip Planner

Search our weather history database for the weather conditions in past years. The results will help you decide how hot, cold, wet, or windy it might be!

Date:

Astronomy

Aug. 31, 2013 Rise Set
Actual Time 7:02 AM CDT 8:00 PM CDT
Civil Twilight 6:35 AM CDT 8:26 PM CDT
Nautical Twilight 6:04 AM CDT 8:57 PM CDT
Astronomical Twilight 5:31 AM CDT 9:29 PM CDT
Moon 2:36 AM CDT (8/31) 4:55 PM CDT (8/31)
Length of Visible Light 13h 50m
Length of Day
12h 58m
Waning Crescent, 21% of the Moon is Illuminated
Aug 31
Waning Crescent
Sep 5
New
Sep 12
First Quarter
Sep 19
Full
Sep 26
Last Quarter

Hourly Weather History & Observations

Time (CDT) Temp. Heat Index Dew Point Humidity Pressure Visibility Wind Dir Wind Speed Gust Speed Precip Events Conditions
12:15 AM 77.0 °F - 68.0 °F 74% 29.87 in 10.0 mi SSE 3.5 mph - N/A   Clear
12:35 AM 75.2 °F - 66.2 °F 73% 29.88 in 10.0 mi Calm Calm - N/A   Clear
12:55 AM 73.4 °F - 68.0 °F 83% 29.88 in 10.0 mi South 3.5 mph - N/A   Clear
1:15 AM 73.4 °F - 68.0 °F 83% 29.88 in 10.0 mi Calm Calm - N/A   Clear
1:35 AM 71.6 °F - 68.0 °F 88% 29.87 in 10.0 mi Calm Calm - N/A   Clear
1:55 AM 71.6 °F - 68.0 °F 88% 29.87 in 10.0 mi Calm Calm - N/A   Clear
2:15 AM 71.6 °F - 66.2 °F 83% 29.87 in 7.0 mi Calm Calm - N/A   Clear
2:35 AM 71.6 °F - 66.2 °F 83% 29.86 in 7.0 mi SSE 3.5 mph - N/A   Clear
2:55 AM 71.6 °F - 66.2 °F 83% 29.86 in 10.0 mi SSE 4.6 mph - N/A   Clear
3:15 AM 71.6 °F - 64.4 °F 78% 29.86 in 10.0 mi SSE 5.8 mph - N/A   Clear
3:35 AM 69.8 °F - 66.2 °F 88% 29.86 in 10.0 mi South 5.8 mph - N/A   Clear
3:55 AM 69.8 °F - 66.2 °F 88% 29.86 in 10.0 mi South 4.6 mph - N/A   Clear
4:15 AM 69.8 °F - 66.2 °F 88% 29.86 in 10.0 mi South 4.6 mph - N/A   Clear
4:35 AM 69.8 °F - 66.2 °F 88% 29.86 in 10.0 mi South 3.5 mph - N/A   Clear
4:55 AM 69.8 °F - 66.2 °F 88% 29.86 in 10.0 mi Calm Calm - N/A   Clear
5:15 AM 69.8 °F - 66.2 °F 88% 29.86 in 10.0 mi Calm Calm - N/A   Clear
5:35 AM 68.0 °F - 66.2 °F 94% 29.86 in 10.0 mi Calm Calm - N/A   Clear
5:55 AM 68.0 °F - 66.2 °F 94% 29.86 in 10.0 mi Calm Calm - N/A   Clear
6:20 AM 68.0 °F - 66.2 °F 94% 29.86 in 10.0 mi SE 4.6 mph - N/A   Partly Cloudy
7:50 AM 69.8 °F - 66.2 °F 88% 29.88 in 10.0 mi SSE 5.8 mph - N/A   Partly Cloudy
8:50 AM 77.0 °F - 66.2 °F 69% 29.88 in 10.0 mi SSE 11.5 mph - N/A   Scattered Clouds
9:50 AM 86.0 °F 88.2 °F 66.2 °F 51% 29.89 in 10.0 mi SW 9.2 mph - N/A   Partly Cloudy
10:50 AM 91.4 °F 92.1 °F 62.6 °F 38% 29.88 in 10.0 mi North 5.8 mph - N/A   Partly Cloudy
11:50 AM 95.0 °F 96.0 °F 62.6 °F 34% 29.86 in 10.0 mi SW 5.8 mph - N/A   Partly Cloudy
12:55 PM 98.6 °F 99.4 °F 60.8 °F 29% 29.85 in 10.0 mi South 11.5 mph - N/A   Scattered Clouds
1:50 PM 102.2 °F 103.6 °F 60.8 °F 26% 29.83 in 10.0 mi SW 11.5 mph - N/A   Scattered Clouds
3:50 PM 104.0 °F 104.6 °F 59.0 °F 23% 29.80 in 10.0 mi SW 13.8 mph - N/A   Scattered Clouds
5:50 PM 104.0 °F 103.4 °F 57.2 °F 21% 29.77 in 10.0 mi SSE 13.8 mph - N/A   Scattered Clouds
6:50 PM 100.4 °F 102.4 °F 62.6 °F 29% 29.77 in 10.0 mi ESE 11.5 mph 17.3 mph N/A   Partly Cloudy
7:50 PM 91.4 °F 92.1 °F 62.6 °F 38% 29.77 in 10.0 mi ESE 11.5 mph - N/A   Scattered Clouds
8:51 PM 84.2 °F 86.6 °F 66.2 °F 55% 29.78 in 10.0 mi SE 11.5 mph - N/A   Scattered Clouds
9:15 PM 82.4 °F 83.9 °F 64.4 °F 54% 29.79 in 10.0 mi SE 5.8 mph - N/A   Clear
9:35 PM 82.4 °F 84.6 °F 66.2 °F 58% 29.79 in 10.0 mi SE 6.9 mph - N/A   Clear
9:55 PM 80.6 °F 82.7 °F 66.2 °F 61% 29.80 in 10.0 mi SSE 4.6 mph - N/A   Clear
10:15 PM 78.8 °F - 66.2 °F 65% 29.80 in 10.0 mi South 3.5 mph - N/A   Clear
10:35 PM 78.8 °F - 66.2 °F 65% 29.80 in 10.0 mi Calm Calm - N/A   Clear
10:55 PM 77.0 °F - 68.0 °F 74% 29.80 in 10.0 mi South 3.5 mph - N/A   Clear
11:15 PM 77.0 °F - 68.0 °F 74% 29.79 in 10.0 mi South 3.5 mph - N/A   Clear
11:35 PM 77.0 °F - 68.0 °F 74% 29.79 in 10.0 mi South 3.5 mph - N/A   Clear
11:55 PM 77.0 °F - 68.0 °F 74% 29.79 in 10.0 mi South 3.5 mph - N/A   Clear